Location: Newark
(49.8969°N, 3.3422°E)
Time: 22:21:49
(UTC+00:00)

Explorer 7 - Pass Details

Date: 02 February 2020
Orbit: 485 x 679 km, 50.3° (Epoch: 19 February)

Event Time Altitude Azimuth Distance (km) Brightness Sun altitude
Rises 21:33:53 0° 264° (W) 2,603 - -45.7°
Reaches altitude 10° 21:36:06 10° 265° (W) 1,699 - -46.0°
Maximum altitude 21:39:56 86° 354° (N) 495 - -46.5°
Drops below altitude 10° 21:43:42 10° 84° (E) 1,669 - -47.0°
Sets 21:45:51 0° 85° (E) 2,552 - -47.2°
